When you browse on this site, cookies collect data to enhance your experience and personalize the content and advertising you see.
Visit our Privacy Policy to learn more. By continuing to use the site, you agree to this use of cookies and data.
  • In United Kingdom
  • List of Countries
  • For 7 days
  • Water Temperature
  • Weather Map
  • Weather Widgets
  • user-avatar
    Login

    Hourly Weather Namyur

    Today, 18 October, Friday

    Time Temperature Precipitation Wind Pressure Humidity
    00:00 +13°C° 0 mm 5 mps 746 mmHg 92%
    01:00 +12°C° 0 mm 5 mps 745 mmHg 92%
    02:00 +12°C° 0 mm 5 mps 745 mmHg 92%
    03:00 +12°C° 0 mm 5 mps 744 mmHg 93%
    04:00 +11°C° 0 mm 6 mps 744 mmHg 92%
    05:00 +11°C° 0 mm 6 mps 744 mmHg 91%
    06:00 +12°C° 0 mm 7 mps 743 mmHg 89%
    07:00 +12°C° 0.5 mm 8 mps 743 mmHg 86%
    08:00 +12°C° 0.5 mm 9 mps 743 mmHg 83%
    09:00 +12°C° 0.5 mm 10 mps 743 mmHg 80%
    10:00 +12°C° 0.1 mm 10 mps 744 mmHg 76%
    11:00 +13°C° 0.1 mm 9 mps 744 mmHg 72%
    12:00 +13°C° 0.1 mm 9 mps 745 mmHg 68%
    13:00 +13°C° 0 mm 8 mps 745 mmHg 67%
    14:00 +14°C° 0 mm 7 mps 745 mmHg 66%
    15:00 +14°C° 0 mm 6 mps 745 mmHg 65%
    16:00 +13°C° 0 mm 6 mps 745 mmHg 67%
    17:00 +12°C° 0 mm 5 mps 745 mmHg 69%
    18:00 +10°C° 0 mm 5 mps 745 mmHg 72%
    19:00 +10°C° 0 mm 5 mps 745 mmHg 71%
    20:00 +10°C° 0 mm 5 mps 745 mmHg 71%
    21:00 +10°C° 0 mm 5 mps 746 mmHg 71%
    22:00 +10°C° 0 mm 5 mps 745 mmHg 72%
    23:00 +10°C° 0 mm 5 mps 745 mmHg 72%

    Tomorrow, 19 October, Saturday

    Time Temperature Precipitation Wind Pressure Humidity
    00:00 +10°C° 0 mm 5 mps 744 mmHg 73%
    01:00 +10°C° 0 mm 5 mps 744 mmHg 75%
    02:00 +10°C° 0 mm 5 mps 744 mmHg 78%
    03:00 +10°C° 0 mm 6 mps 744 mmHg 81%
    04:00 +10°C° 0.3 mm 5 mps 744 mmHg 84%
    05:00 +10°C° 0.3 mm 5 mps 743 mmHg 88%
    06:00 +11°C° 0.3 mm 4 mps 743 mmHg 91%
    07:00 +10°C° 0.3 mm 5 mps 743 mmHg 91%
    08:00 +10°C° 0.3 mm 5 mps 743 mmHg 90%
    09:00 +12°C° 0.3 mm 5 mps 743 mmHg 90%
    10:00 +12°C° 0.3 mm 5 mps 743 mmHg 87%
    11:00 +13°C° 0.3 mm 5 mps 743 mmHg 85%
    12:00 +14°C° 0.3 mm 5 mps 743 mmHg 82%
    13:00 +13°C° 0.2 mm 5 mps 743 mmHg 83%
    14:00 +13°C° 0.2 mm 4 mps 743 mmHg 83%
    15:00 +13°C° 0.2 mm 4 mps 743 mmHg 84%
    16:00 +12°C° 0.1 mm 3 mps 744 mmHg 86%
    17:00 +12°C° 0.1 mm 3 mps 744 mmHg 89%
    18:00 +11°C° 0.1 mm 3 mps 744 mmHg 92%
    19:00 +10°C° 0 mm 3 mps 745 mmHg 93%
    20:00 +10°C° 0 mm 3 mps 745 mmHg 94%
    21:00 +9°C° 0 mm 3 mps 745 mmHg 95%
    22:00 +9°C° 0 mm 3 mps 746 mmHg 95%
    23:00 +9°C° 0 mm 3 mps 746 mmHg 95%

    Day after tomorrow, 20 October, Sunday

    Time Temperature Precipitation Wind Pressure Humidity
    00:00 +9°C° 0 mm 2 mps 746 mmHg 96%
    01:00 +9°C° 0 mm 2 mps 745 mmHg 96%
    02:00 +9°C° 0 mm 2 mps 745 mmHg 95%
    03:00 +10°C° 0 mm 1 mps 745 mmHg 95%
    04:00 +10°C° 0.5 mm 1 mps 745 mmHg 95%
    05:00 +10°C° 0.5 mm 2 mps 744 mmHg 96%
    06:00 +10°C° 0.5 mm 2 mps 744 mmHg 96%
    07:00 +10°C° 2.7 mm 3 mps 744 mmHg 96%
    08:00 +10°C° 2.7 mm 4 mps 744 mmHg 97%
    09:00 +10°C° 2.7 mm 4 mps 744 mmHg 97%
    10:00 +9°C° 3.2 mm 5 mps 744 mmHg 97%
    11:00 +9°C° 3.2 mm 5 mps 743 mmHg 96%
    12:00 +9°C° 3.2 mm 5 mps 743 mmHg 96%
    13:00 +9°C° 1.8 mm 5 mps 743 mmHg 96%
    14:00 +9°C° 1.8 mm 6 mps 743 mmHg 96%
    15:00 +9°C° 1.8 mm 6 mps 743 mmHg 96%
    16:00 +9°C° 1.7 mm 5 mps 743 mmHg 97%
    17:00 +10°C° 1.7 mm 4 mps 743 mmHg 97%
    18:00 +10°C° 1.7 mm 3 mps 744 mmHg 97%
    19:00 +10°C° 0.1 mm 2 mps 744 mmHg 97%
    20:00 +10°C° 0.1 mm 2 mps 744 mmHg 97%
    21:00 +11°C° 0.1 mm 1 mps 745 mmHg 97%
    22:00 +11°C° 0.1 mm 1 mps 745 mmHg 97%
    23:00 +11°C° 0.1 mm 1 mps 745 mmHg 97%

    21 October, Monday

    Time Temperature Precipitation Wind Pressure Humidity
    00:00 +10°C° 0.1 mm 2 mps 745 mmHg 96%
    01:00 +10°C° 0.4 mm 2 mps 745 mmHg 96%
    02:00 +10°C° 0.4 mm 2 mps 745 mmHg 96%
    03:00 +12°C° 0.4 mm 2 mps 746 mmHg 95%
    04:00 +10°C° 0.2 mm 3 mps 747 mmHg 96%
    05:00 +10°C° 0.2 mm 3 mps 747 mmHg 96%
    06:00 +10°C° 0.2 mm 4 mps 748 mmHg 97%
    07:00 +10°C° 0.2 mm 4 mps 749 mmHg 95%
    08:00 +9°C° 0.2 mm 5 mps 750 mmHg 94%
    09:00 +9°C° 0.2 mm 5 mps 751 mmHg 93%
    10:00 +10°C° 0.1 mm 5 mps 752 mmHg 89%
    11:00 +12°C° 0.1 mm 5 mps 753 mmHg 84%
    12:00 +13°C° 0.1 mm 5 mps 754 mmHg 80%
    13:00 +13°C° 0.1 mm 5 mps 754 mmHg 81%
    14:00 +12°C° 0.1 mm 4 mps 754 mmHg 82%
    15:00 +12°C° 0.1 mm 4 mps 755 mmHg 82%
    16:00 +11°C° 0 mm 3 mps 755 mmHg 86%
    17:00 +10°C° 0 mm 3 mps 756 mmHg 89%
    18:00 +9°C° 0 mm 2 mps 756 mmHg 92%
    19:00 +8°C° 0 mm 2 mps 757 mmHg 92%
    20:00 +9°C° 0 mm 1 mps 757 mmHg 93%
    21:00 +8°C° 0 mm 1 mps 758 mmHg 93%
    22:00 +8°C° 0 mm 1 mps 758 mmHg 93%
    23:00 +8°C° 0 mm 1 mps 758 mmHg 93%

    22 October, Tuesday

    Time Temperature Precipitation Wind Pressure Humidity
    00:00 +7°C° 0 mm 1 mps 758 mmHg 93%
    01:00 +7°C° 0 mm 1 mps 758 mmHg 93%
    02:00 +7°C° 0 mm 1 mps 758 mmHg 93%
    03:00 +7°C° 0 mm 1 mps 758 mmHg 93%
    04:00 +7°C° 0 mm 1 mps 758 mmHg 93%
    05:00 +7°C° 0 mm 1 mps 758 mmHg 93%
    06:00 +6°C° 0 mm 1 mps 758 mmHg 93%
    07:00 +8°C° 0 mm 1 mps 759 mmHg 89%
    08:00 +10°C° 0 mm 1 mps 759 mmHg 85%
    09:00 +10°C° 0 mm 2 mps 759 mmHg 81%
    10:00 +12°C° 0 mm 2 mps 758 mmHg 78%
    11:00 +12°C° 0 mm 3 mps 758 mmHg 76%
    12:00 +14°C° 0 mm 3 mps 758 mmHg 74%
    13:00 +14°C° 0 mm 3 mps 757 mmHg 75%
    14:00 +14°C° 0 mm 3 mps 757 mmHg 76%
    15:00 +14°C° 0 mm 3 mps 756 mmHg 77%
    16:00 +12°C° 0 mm 3 mps 756 mmHg 82%
    17:00 +11°C° 0 mm 3 mps 756 mmHg 87%
    18:00 +9°C° 0 mm 3 mps 756 mmHg 92%
    19:00 +9°C° 0 mm 3 mps 755 mmHg 92%
    20:00 +9°C° 0 mm 2 mps 755 mmHg 91%
    21:00 +9°C° 0 mm 2 mps 755 mmHg 91%
    22:00 +9°C° 0 mm 2 mps 755 mmHg 91%
    23:00 +8°C° 0 mm 2 mps 754 mmHg 91%

    23 October, Wednesday

    Time Temperature Precipitation Wind Pressure Humidity
    00:00 +8°C° 0 mm 3 mps 754 mmHg 91%
    01:00 +8°C° 0 mm 2 mps 753 mmHg 91%
    02:00 +8°C° 0 mm 2 mps 753 mmHg 91%
    03:00 +9°C° 0 mm 1 mps 753 mmHg 91%
    04:00 +10°C° 0 mm 1 mps 753 mmHg 91%
    05:00 +10°C° 0 mm 1 mps 752 mmHg 91%
    06:00 +10°C° 0 mm 1 mps 752 mmHg 91%
    07:00 +10°C° 0 mm 2 mps 752 mmHg 87%
    08:00 +13°C° 0 mm 2 mps 752 mmHg 83%
    09:00 +14°C° 0 mm 3 mps 751 mmHg 80%
    10:00 +16°C° 0 mm 3 mps 751 mmHg 77%
    11:00 +18°C° 0 mm 3 mps 751 mmHg 74%
    12:00 +19°C° 0 mm 3 mps 750 mmHg 71%
    13:00 +19°C° 0 mm 3 mps 750 mmHg 73%
    14:00 +19°C° 0 mm 2 mps 750 mmHg 75%
    15:00 +20°C° 0 mm 2 mps 749 mmHg 77%
    16:00 +19°C° 0 mm 1 mps 749 mmHg 82%
    17:00 +16°C° 0 mm 1 mps 749 mmHg 86%
    18:00 +14°C° 0 mm 1 mps 749 mmHg 90%
    19:00 +14°C° 0 mm 1 mps 749 mmHg 90%
    20:00 +13°C° 0 mm 1 mps 749 mmHg 90%
    21:00 +13°C° 0 mm 1 mps 750 mmHg 90%
    22:00 +13°C° 0 mm 1 mps 750 mmHg 90%
    23:00 +13°C° 0 mm 1 mps 750 mmHg 90%
    Show more